When you browse on this site, cookies collect data to enhance your experience and personalize the content and advertising you see.
Visit our Privacy Policy to learn more. By continuing to use the site, you agree to this use of cookies and data.
  • In Austria
  • List of Countries
  • For 7 days
  • Water Temperature
  • Weather Map
  • News
  • Weather Widgets
  • user-avatar
    Login

    Hourly Weather Gdansk

    Today, 17 October, Thursday

    Time Temperature Precipitation Wind Pressure Humidity
    00:00 +12°C° 1.7 mm 9 mps 751 mmHg 86%
    01:00 +12°C° 0 mm 8 mps 752 mmHg 88%
    02:00 +12°C° 0.3 mm 8 mps 752 mmHg 86%
    03:00 +12°C° 0.3 mm 8 mps 752 mmHg 85%
    04:00 +11°C° 0.3 mm 8 mps 752 mmHg 83%
    05:00 +11°C° 0 mm 7 mps 753 mmHg 85%
    06:00 +10°C° 0 mm 7 mps 753 mmHg 87%
    07:00 +10°C° 0 mm 6 mps 754 mmHg 87%
    08:00 +11°C° 0 mm 6 mps 755 mmHg 83%
    09:00 +13°C° 0 mm 5 mps 755 mmHg 79%
    10:00 +14°C° 0 mm 5 mps 755 mmHg 75%
    11:00 +14°C° 0 mm 5 mps 755 mmHg 75%
    12:00 +15°C° 0 mm 4 mps 755 mmHg 75%
    13:00 +15°C° 0 mm 4 mps 756 mmHg 74%
    14:00 +15°C° 0 mm 4 mps 755 mmHg 75%
    15:00 +15°C° 0 mm 4 mps 755 mmHg 77%
    16:00 +14°C° 0 mm 4 mps 755 mmHg 78%
    17:00 +14°C° 0 mm 4 mps 755 mmHg 79%
    18:00 +14°C° 0 mm 3 mps 756 mmHg 79%
    19:00 +14°C° 0 mm 3 mps 756 mmHg 80%
    20:00 +13°C° 0.1 mm 3 mps 756 mmHg 82%
    21:00 +13°C° 0.1 mm 3 mps 756 mmHg 84%
    22:00 +13°C° 0.1 mm 3 mps 756 mmHg 85%
    23:00 +12°C° 0 mm 3 mps 756 mmHg 87%

    Tomorrow, 18 October, Friday

    Time Temperature Precipitation Wind Pressure Humidity
    00:00 +12°C° 0 mm 3 mps 756 mmHg 90%
    01:00 +11°C° 0 mm 3 mps 756 mmHg 92%
    02:00 +11°C° 0 mm 3 mps 756 mmHg 92%
    03:00 +11°C° 0 mm 3 mps 756 mmHg 92%
    04:00 +12°C° 0 mm 2 mps 756 mmHg 92%
    05:00 +11°C° 0 mm 3 mps 756 mmHg 90%
    06:00 +11°C° 0 mm 3 mps 756 mmHg 89%
    07:00 +12°C° 0 mm 3 mps 756 mmHg 88%
    08:00 +12°C° 0.4 mm 3 mps 756 mmHg 87%
    09:00 +12°C° 0.4 mm 3 mps 756 mmHg 87%
    10:00 +12°C° 0.4 mm 3 mps 756 mmHg 86%
    11:00 +13°C° 0.2 mm 3 mps 756 mmHg 83%
    12:00 +13°C° 0.2 mm 3 mps 755 mmHg 80%
    13:00 +13°C° 0.2 mm 3 mps 755 mmHg 76%
    14:00 +14°C° 0 mm 3 mps 755 mmHg 77%
    15:00 +14°C° 0 mm 3 mps 755 mmHg 78%
    16:00 +14°C° 0 mm 3 mps 754 mmHg 78%
    17:00 +14°C° 0 mm 3 mps 754 mmHg 81%
    18:00 +13°C° 0 mm 3 mps 754 mmHg 83%
    19:00 +13°C° 0 mm 4 mps 754 mmHg 86%
    20:00 +13°C° 0 mm 4 mps 754 mmHg 85%
    21:00 +13°C° 0 mm 4 mps 754 mmHg 85%
    22:00 +13°C° 0 mm 4 mps 754 mmHg 84%
    23:00 +13°C° 0 mm 4 mps 754 mmHg 83%

    Day after tomorrow, 19 October, Saturday

    Time Temperature Precipitation Wind Pressure Humidity
    00:00 +13°C° 0 mm 4 mps 754 mmHg 82%
    01:00 +13°C° 0 mm 4 mps 754 mmHg 81%
    02:00 +13°C° 0 mm 4 mps 754 mmHg 83%
    03:00 +13°C° 0 mm 3 mps 754 mmHg 86%
    04:00 +12°C° 0 mm 3 mps 754 mmHg 88%
    05:00 +12°C° 0 mm 3 mps 754 mmHg 90%
    06:00 +12°C° 0 mm 3 mps 754 mmHg 91%
    07:00 +13°C° 0 mm 2 mps 755 mmHg 93%
    08:00 +14°C° 0 mm 2 mps 755 mmHg 88%
    09:00 +14°C° 0 mm 2 mps 755 mmHg 83%
    10:00 +15°C° 0 mm 2 mps 755 mmHg 78%
    11:00 +16°C° 0 mm 2 mps 755 mmHg 74%
    12:00 +17°C° 0 mm 2 mps 755 mmHg 69%
    13:00 +17°C° 0 mm 2 mps 756 mmHg 64%
    14:00 +18°C° 0 mm 1 mps 755 mmHg 66%
    15:00 +16°C° 0 mm 1 mps 755 mmHg 69%
    16:00 +15°C° 0 mm 1 mps 755 mmHg 71%
    17:00 +15°C° 0 mm 1 mps 755 mmHg 72%
    18:00 +15°C° 0 mm 2 mps 755 mmHg 73%
    19:00 +14°C° 0 mm 2 mps 755 mmHg 73%
    20:00 +14°C° 0 mm 2 mps 755 mmHg 75%
    21:00 +13°C° 0 mm 3 mps 755 mmHg 76%
    22:00 +13°C° 0 mm 3 mps 755 mmHg 77%
    23:00 +13°C° 0 mm 3 mps 755 mmHg 81%

    20 October, Sunday

    Time Temperature Precipitation Wind Pressure Humidity
    00:00 +12°C° 0 mm 3 mps 755 mmHg 84%
    01:00 +12°C° 0 mm 3 mps 754 mmHg 87%
    02:00 +12°C° 0 mm 3 mps 754 mmHg 88%
    03:00 +12°C° 0 mm 3 mps 754 mmHg 88%
    04:00 +12°C° 0 mm 3 mps 754 mmHg 88%
    05:00 +12°C° 0 mm 4 mps 754 mmHg 88%
    06:00 +11°C° 0 mm 4 mps 754 mmHg 89%
    07:00 +11°C° 0 mm 4 mps 754 mmHg 89%
    08:00 +13°C° 0 mm 4 mps 754 mmHg 84%
    09:00 +14°C° 0 mm 4 mps 754 mmHg 80%
    10:00 +15°C° 0 mm 4 mps 755 mmHg 75%
    11:00 +17°C° 0 mm 3 mps 755 mmHg 72%
    12:00 +17°C° 0 mm 3 mps 755 mmHg 69%
    13:00 +18°C° 0 mm 2 mps 755 mmHg 66%
    14:00 +18°C° 0 mm 2 mps 755 mmHg 68%
    15:00 +18°C° 0 mm 1 mps 755 mmHg 71%
    16:00 +16°C° 0 mm 1 mps 756 mmHg 74%
    17:00 +16°C° 0 mm 1 mps 756 mmHg 77%
    18:00 +15°C° 0 mm 1 mps 756 mmHg 80%
    19:00 +14°C° 0 mm 1 mps 756 mmHg 83%
    20:00 +14°C° 0 mm 1 mps 756 mmHg 84%
    21:00 +14°C° 0 mm 1 mps 756 mmHg 85%
    22:00 +13°C° 0 mm 1 mps 756 mmHg 87%
    23:00 +13°C° 0 mm 1 mps 756 mmHg 88%

    21 October, Monday

    Time Temperature Precipitation Wind Pressure Humidity
    00:00 +13°C° 0 mm 2 mps 756 mmHg 88%
    01:00 +13°C° 0 mm 2 mps 755 mmHg 89%
    02:00 +12°C° 0 mm 2 mps 755 mmHg 89%
    03:00 +12°C° 0 mm 1 mps 755 mmHg 90%
    04:00 +12°C° 0 mm 1 mps 755 mmHg 90%
    05:00 +12°C° 0 mm 1 mps 755 mmHg 90%
    06:00 +12°C° 0 mm 2 mps 755 mmHg 91%
    07:00 +12°C° 0 mm 2 mps 755 mmHg 91%
    08:00 +12°C° 0 mm 3 mps 755 mmHg 86%
    09:00 +14°C° 0 mm 3 mps 755 mmHg 80%
    10:00 +16°C° 0 mm 3 mps 755 mmHg 75%
    11:00 +17°C° 0 mm 2 mps 755 mmHg 72%
    12:00 +18°C° 0 mm 2 mps 755 mmHg 69%
    13:00 +19°C° 0 mm 2 mps 755 mmHg 66%
    14:00 +19°C° 0 mm 2 mps 755 mmHg 69%
    15:00 +18°C° 0 mm 2 mps 755 mmHg 73%
    16:00 +18°C° 0 mm 1 mps 755 mmHg 76%
    17:00 +17°C° 0 mm 2 mps 755 mmHg 79%
    18:00 +16°C° 0 mm 3 mps 755 mmHg 83%
    19:00 +14°C° 0 mm 4 mps 755 mmHg 86%
    20:00 +14°C° 0 mm 4 mps 756 mmHg 85%
    21:00 +14°C° 0 mm 5 mps 756 mmHg 85%
    22:00 +14°C° 0 mm 5 mps 756 mmHg 85%
    23:00 +13°C° 0 mm 6 mps 757 mmHg 84%

    22 October, Tuesday

    Time Temperature Precipitation Wind Pressure Humidity
    00:00 +12°C° 0 mm 7 mps 757 mmHg 82%
    01:00 +12°C° 0 mm 8 mps 758 mmHg 80%
    02:00 +11°C° 0 mm 7 mps 758 mmHg 81%
    03:00 +11°C° 0 mm 7 mps 759 mmHg 81%
    04:00 +11°C° 0 mm 6 mps 759 mmHg 82%
    05:00 +10°C° 0 mm 5 mps 760 mmHg 84%
    06:00 +10°C° 0 mm 5 mps 760 mmHg 86%
    07:00 +10°C° 0 mm 4 mps 761 mmHg 88%
    08:00 +11°C° 0 mm 4 mps 761 mmHg 84%
    09:00 +12°C° 0 mm 5 mps 762 mmHg 79%
    10:00 +13°C° 0 mm 5 mps 762 mmHg 75%
    11:00 +13°C° 0 mm 5 mps 763 mmHg 72%
    12:00 +13°C° 0 mm 5 mps 763 mmHg 69%
    13:00 +14°C° 0 mm 5 mps 763 mmHg 66%
    14:00 +13°C° 0 mm 5 mps 763 mmHg 69%
    15:00 +12°C° 0 mm 4 mps 763 mmHg 71%
    16:00 +12°C° 0 mm 4 mps 763 mmHg 74%
    17:00 +11°C° 0 mm 4 mps 763 mmHg 76%
    18:00 +10°C° 0 mm 4 mps 764 mmHg 78%
    19:00 +8°C° 0 mm 4 mps 764 mmHg 80%
    20:00 +10°C° 0 mm 3 mps 764 mmHg 77%
    21:00 +10°C° 0 mm 3 mps 764 mmHg 75%
    22:00 +10°C° 0 mm 3 mps 765 mmHg 72%
    23:00 +10°C° 0 mm 3 mps 765 mmHg 71%
    Show more